Time,TemperatureF,DewpointF,PressureIn,WindDirection,WindDirectionDegrees,WindSpeedMPH,WindSpeedGustMPH,Humidity,HourlyPrecipIn,Conditions,Clouds,dailyrainin,SoftwareType,DateUTC
2013-10-05 00:01:00,57.9,55.9,17.72,SSW,203,0.0,0.0,93,0.00,,,0.00,VWS V14.01,2013-10-05 04:01:00,
2013-10-05 00:06:00,57.9,55.9,17.72,SSW,203,0.0,0.0,93,0.00,,,0.00,VWS V14.01,2013-10-05 04:06:00,
2013-10-05 00:11:00,57.9,55.9,17.72,SSW,203,0.0,0.0,93,0.00,,,0.00,VWS V14.01,2013-10-05 04:11:00,
2013-10-05 00:16:00,57.9,55.9,17.72,SSW,203,0.0,0.0,93,0.00,,,0.00,VWS V14.01,2013-10-05 04:16:00,
2013-10-05 00:21:00,57.9,55.9,17.72,SSW,203,0.0,0.0,93,0.00,,,0.00,VWS V14.01,2013-10-05 04:21:00,
2013-10-05 00:26:00,57.9,55.9,17.72,SSW,203,0.0,0.0,93,0.00,,,0.00,VWS V14.01,2013-10-05 04:26:00,
2013-10-05 00:31:00,57.9,55.9,17.72,SSW,203,0.0,0.0,93,0.00,,,0.00,VWS V14.01,2013-10-05 04:31:00,
2013-10-05 00:36:00,57.9,55.9,17.72,SSW,203,0.0,0.0,93,0.00,,,0.00,VWS V14.01,2013-10-05 04:36:00,
2013-10-05 00:41:00,58.1,56.4,17.72,SSW,203,0.0,0.0,94,0.00,,,0.00,VWS V14.01,2013-10-05 04:41:00,
2013-10-05 00:46:00,58.1,56.4,17.72,SSW,203,0.0,0.0,94,0.00,,,0.00,VWS V14.01,2013-10-05 04:46:00,
2013-10-05 00:51:00,58.1,56.4,17.72,SSW,203,0.0,0.0,94,0.00,,,0.00,VWS V14.01,2013-10-05 04:51:00,
2013-10-05 00:56:00,58.1,56.4,17.72,SSW,203,0.0,0.0,94,0.00,,,0.00,VWS V14.01,2013-10-05 04:56:00,
2013-10-05 01:01:00,58.1,56.4,17.72,SSW,203,0.0,0.0,94,0.00,,,0.00,VWS V14.01,2013-10-05 05:01:00,
2013-10-05 01:06:00,58.1,56.4,17.72,SSW,203,0.0,0.0,94,0.00,,,0.00,VWS V14.01,2013-10-05 05:06:00,
2013-10-05 01:11:00,58.1,56.4,17.72,SSW,203,0.0,0.0,94,0.00,,,0.00,VWS V14.01,2013-10-05 05:11:00,
2013-10-05 01:16:00,57.9,56.2,17.72,SSW,203,0.0,0.0,94,0.00,,,0.00,VWS V14.01,2013-10-05 05:16:00,
2013-10-05 01:21:00,57.9,56.2,17.72,SSW,203,0.0,0.0,94,0.00,,,0.00,VWS V14.01,2013-10-05 05:21:00,
2013-10-05 01:26:00,57.9,56.2,17.72,SSW,203,0.0,0.0,94,0.00,,,0.00,VWS V14.01,2013-10-05 05:26:00,
2013-10-05 01:31:00,57.9,56.2,17.72,SSW,203,0.0,0.0,94,0.00,,,0.00,VWS V14.01,2013-10-05 05:31:00,
2013-10-05 01:36:00,57.9,56.2,17.72,SSW,203,0.0,0.0,94,0.00,,,0.00,VWS V14.01,2013-10-05 05:36:00,
2013-10-05 01:41:00,57.9,56.2,17.72,SSW,203,0.0,0.0,94,0.00,,,0.00,VWS V14.01,2013-10-05 05:41:00,
2013-10-05 01:46:00,57.9,56.2,17.72,SSW,203,0.0,0.0,94,0.00,,,0.00,VWS V14.01,2013-10-05 05:46:00,
2013-10-05 01:51:00,57.9,56.2,17.72,SSW,203,0.0,0.0,94,0.00,,,0.00,VWS V14.01,2013-10-05 05:51:00,
2013-10-05 01:56:00,57.9,56.2,17.72,SSW,203,0.0,0.0,94,0.00,,,0.00,VWS V14.01,2013-10-05 05:56:00,
2013-10-05 02:01:00,57.9,56.2,17.72,SSW,203,0.0,0.0,94,0.00,,,0.00,VWS V14.01,2013-10-05 06:01:00,
2013-10-05 02:06:00,57.9,56.2,17.72,SSW,203,0.0,0.0,94,0.00,,,0.00,VWS V14.01,2013-10-05 06:06:00,
2013-10-05 02:11:00,57.9,56.2,17.72,SSW,203,0.0,0.0,94,0.00,,,0.00,VWS V14.01,2013-10-05 06:11:00,
2013-10-05 02:16:00,57.9,56.2,17.72,SSW,203,0.0,0.0,94,0.00,,,0.00,VWS V14.01,2013-10-05 06:16:00,
2013-10-05 02:21:00,57.9,56.2,17.72,SSW,203,0.0,0.0,94,0.00,,,0.00,VWS V14.01,2013-10-05 06:21:00,
2013-10-05 02:26:00,57.7,56.0,17.72,SSW,203,0.0,0.0,94,0.00,,,0.00,VWS V14.01,2013-10-05 06:26:00,
2013-10-05 02:31:00,57.9,56.5,17.72,SSW,203,0.0,0.0,95,0.00,,,0.00,VWS V14.01,2013-10-05 06:31:00,
2013-10-05 02:36:00,57.9,56.5,17.72,SSW,203,0.0,0.0,95,0.00,,,0.00,VWS V14.01,2013-10-05 06:36:00,
2013-10-05 02:41:00,57.9,56.5,17.72,SSW,203,0.0,0.0,95,0.00,,,0.00,VWS V14.01,2013-10-05 06:41:00,
2013-10-05 02:46:00,57.9,56.5,17.72,SSW,203,0.0,0.0,95,0.00,,,0.00,VWS V14.01,2013-10-05 06:46:00,
2013-10-05 02:51:00,57.9,56.5,17.72,SSW,203,0.0,0.0,95,0.00,,,0.00,VWS V14.01,2013-10-05 06:51:00,
2013-10-05 02:56:00,57.9,56.5,17.72,SSW,203,0.0,0.0,95,0.00,,,0.00,VWS V14.01,2013-10-05 06:56:00,
2013-10-05 03:01:00,58.1,56.7,17.72,SSW,203,0.0,0.0,95,0.00,,,0.00,VWS V14.01,2013-10-05 07:01:00,
2013-10-05 03:06:00,58.1,56.7,17.72,SSW,203,0.0,0.0,95,0.00,,,0.00,VWS V14.01,2013-10-05 07:06:00,
2013-10-05 03:11:00,58.1,56.7,17.72,SSW,203,0.0,0.0,95,0.00,,,0.00,VWS V14.01,2013-10-05 07:11:00,
2013-10-05 03:16:00,58.1,56.7,17.72,SSW,203,0.0,0.0,95,0.00,,,0.00,VWS V14.01,2013-10-05 07:16:00,
2013-10-05 03:21:00,58.1,56.7,17.72,SSW,203,0.0,0.0,95,0.00,,,0.00,VWS V14.01,2013-10-05 07:21:00,
2013-10-05 03:26:00,58.1,56.7,17.72,SSW,203,0.0,0.0,95,0.00,,,0.00,VWS V14.01,2013-10-05 07:26:00,
2013-10-05 03:31:00,58.1,56.7,17.72,SSW,203,0.0,0.0,95,0.00,,,0.00,VWS V14.01,2013-10-05 07:31:00,
2013-10-05 03:36:00,58.1,56.7,17.72,SSW,203,0.0,0.0,95,0.00,,,0.00,VWS V14.01,2013-10-05 07:36:00,
2013-10-05 03:41:00,58.1,56.7,17.72,SSW,203,0.0,0.0,95,0.00,,,0.00,VWS V14.01,2013-10-05 07:41:00,
2013-10-05 03:46:00,58.1,56.7,17.72,SSW,203,0.0,0.0,95,0.00,,,0.00,VWS V14.01,2013-10-05 07:46:00,
2013-10-05 03:51:00,58.3,57.2,17.72,SSW,203,0.0,0.0,96,0.00,,,0.00,VWS V14.01,2013-10-05 07:51:00,
2013-10-05 03:56:00,58.3,57.2,17.72,SSW,203,0.0,0.0,96,0.00,,,0.00,VWS V14.01,2013-10-05 07:56:00,
2013-10-05 04:00:00,58.3,57.2,17.72,SSW,203,0.0,0.0,96,0.00,,,0.00,VWS V14.01,2013-10-05 08:00:00,
2013-10-05 04:05:00,58.3,57.2,17.72,SSW,203,0.0,0.0,96,0.00,,,0.00,VWS V14.01,2013-10-05 08:05:00,
2013-10-05 04:10:00,58.3,57.2,17.72,SSW,203,0.0,0.0,96,0.00,,,0.00,VWS V14.01,2013-10-05 08:10:00,
2013-10-05 04:16:00,58.5,57.3,17.72,SSW,203,0.0,0.0,96,0.00,,,0.00,VWS V14.01,2013-10-05 08:16:00,
2013-10-05 04:21:00,58.5,57.3,17.72,SSW,203,0.0,0.0,96,0.00,,,0.00,VWS V14.01,2013-10-05 08:21:00,
2013-10-05 04:26:00,58.5,57.3,17.72,SSW,203,0.0,0.0,96,0.00,,,0.00,VWS V14.01,2013-10-05 08:26:00,
2013-10-05 04:31:00,58.5,57.3,17.72,SSW,203,0.0,0.0,96,0.00,,,0.00,VWS V14.01,2013-10-05 08:31:00,
2013-10-05 04:36:00,58.5,57.3,17.72,SSW,203,0.0,0.0,96,0.00,,,0.00,VWS V14.01,2013-10-05 08:36:00,
2013-10-05 04:40:00,58.5,57.3,17.72,SSW,203,0.0,0.0,96,0.00,,,0.00,VWS V14.01,2013-10-05 08:40:00,
2013-10-05 04:45:00,58.5,57.3,17.72,SSW,203,0.0,0.0,96,0.00,,,0.00,VWS V14.01,2013-10-05 08:45:00,
2013-10-05 04:50:00,58.5,57.3,17.72,SSW,203,0.0,0.0,96,0.00,,,0.00,VWS V14.01,2013-10-05 08:50:00,
2013-10-05 04:55:00,58.5,57.3,17.72,SSW,203,0.0,0.0,96,0.00,,,0.00,VWS V14.01,2013-10-05 08:55:00,
2013-10-05 05:00:00,58.5,57.3,17.72,SSW,203,0.0,0.0,96,0.00,,,0.00,VWS V14.01,2013-10-05 09:00:00,
2013-10-05 05:05:00,58.5,57.3,17.72,SSW,203,0.0,0.0,96,0.00,,,0.00,VWS V14.01,2013-10-05 09:05:00,
2013-10-05 05:10:00,58.6,57.5,17.72,SSW,203,0.0,0.0,96,0.00,,,0.00,VWS V14.01,2013-10-05 09:10:00,
2013-10-05 05:15:00,58.6,57.5,17.72,SSW,203,0.0,0.0,96,0.00,,,0.00,VWS V14.01,2013-10-05 09:15:00,
2013-10-05 05:20:00,58.6,57.5,17.72,SSW,203,0.0,0.0,96,0.00,,,0.00,VWS V14.01,2013-10-05 09:20:00,
2013-10-05 05:25:00,58.6,57.8,17.72,SSW,203,0.0,0.0,97,0.00,,,0.00,VWS V14.01,2013-10-05 09:25:00,
2013-10-05 05:30:00,58.6,57.8,17.72,SSW,203,0.0,0.0,97,0.00,,,0.00,VWS V14.01,2013-10-05 09:30:00,
2013-10-05 05:35:00,58.6,57.8,17.72,SSW,203,0.0,0.0,97,0.00,,,0.00,VWS V14.01,2013-10-05 09:35:00,
2013-10-05 05:40:00,58.6,57.8,17.72,SSW,203,0.0,0.0,97,0.00,,,0.00,VWS V14.01,2013-10-05 09:40:00,
2013-10-05 05:45:00,58.6,57.8,17.72,SSW,203,0.0,0.0,97,0.00,,,0.00,VWS V14.01,2013-10-05 09:45:00,
2013-10-05 05:50:00,58.6,57.8,17.72,SSW,203,0.0,0.0,97,0.00,,,0.00,VWS V14.01,2013-10-05 09:50:00,
2013-10-05 05:55:00,58.6,57.8,17.72,SSW,203,0.0,0.0,97,0.00,,,0.00,VWS V14.01,2013-10-05 09:55:00,
2013-10-05 06:00:00,58.6,57.8,17.72,SSW,203,0.0,0.0,97,0.00,,,0.00,VWS V14.01,2013-10-05 10:00:00,
2013-10-05 06:05:00,58.6,57.8,17.72,SSW,203,0.0,0.0,97,0.00,,,0.00,VWS V14.01,2013-10-05 10:05:00,
2013-10-05 06:10:00,58.6,57.8,17.72,SSW,203,0.0,0.0,97,0.00,,,0.00,VWS V14.01,2013-10-05 10:10:00,
2013-10-05 06:15:00,58.6,57.8,17.72,SSW,203,0.0,0.0,97,0.00,,,0.00,VWS V14.01,2013-10-05 10:15:00,
2013-10-05 06:20:00,58.6,57.8,17.72,SSW,203,0.0,0.0,97,0.00,,,0.00,VWS V14.01,2013-10-05 10:20:00,
2013-10-05 06:25:00,58.6,57.8,17.72,SSW,203,0.0,0.0,97,0.00,,,0.00,VWS V14.01,2013-10-05 10:25:00,
2013-10-05 06:30:00,58.6,57.8,17.72,SSW,203,0.0,0.0,97,0.00,,,0.00,VWS V14.01,2013-10-05 10:30:00,
2013-10-05 06:35:00,58.6,57.8,17.72,SSW,203,0.0,0.0,97,0.00,,,0.00,VWS V14.01,2013-10-05 10:35:00,
2013-10-05 06:40:00,58.6,57.8,17.72,SSW,203,0.0,0.0,97,0.00,,,0.00,VWS V14.01,2013-10-05 10:40:00,
2013-10-05 06:45:00,58.6,57.8,17.72,SSW,203,0.0,0.0,97,0.00,,,0.00,VWS V14.01,2013-10-05 10:45:00,
2013-10-05 06:50:00,58.6,57.8,17.72,SSW,203,0.0,0.0,97,0.00,,,0.00,VWS V14.01,2013-10-05 10:50:00,
2013-10-05 06:55:00,58.5,57.6,17.72,SSW,203,0.0,0.0,97,0.00,,,0.00,VWS V14.01,2013-10-05 10:55:00,
2013-10-05 07:00:00,58.5,57.6,17.72,SSW,203,0.0,0.0,97,0.00,,,0.00,VWS V14.01,2013-10-05 11:00:00,
2013-10-05 07:05:00,58.3,57.4,17.72,SSW,203,0.0,0.0,97,0.00,,,0.00,VWS V14.01,2013-10-05 11:05:00,
2013-10-05 07:10:00,58.3,57.4,17.72,SSW,203,0.0,0.0,97,0.00,,,0.00,VWS V14.01,2013-10-05 11:10:00,
2013-10-05 07:15:00,58.1,57.3,17.72,SSW,203,0.0,0.0,97,0.00,,,0.00,VWS V14.01,2013-10-05 11:15:00,
2013-10-05 07:20:00,58.1,57.3,17.72,SSW,203,0.0,0.0,97,0.00,,,0.00,VWS V14.01,2013-10-05 11:20:00,
2013-10-05 07:25:00,58.1,57.3,17.72,SSW,203,0.0,0.0,97,0.00,,,0.00,VWS V14.01,2013-10-05 11:25:00,
2013-10-05 07:30:00,58.1,57.3,17.72,SSW,203,0.0,0.0,97,0.00,,,0.00,VWS V14.01,2013-10-05 11:30:00,
2013-10-05 07:35:00,58.1,57.3,17.72,SSW,203,0.0,0.0,97,0.00,,,0.00,VWS V14.01,2013-10-05 11:35:00,
2013-10-05 07:40:00,58.1,57.3,17.72,SSW,203,0.0,0.0,97,0.00,,,0.00,VWS V14.01,2013-10-05 11:40:00,
2013-10-05 07:45:00,58.1,57.3,17.72,SSW,203,0.0,0.0,97,0.00,,,0.00,VWS V14.01,2013-10-05 11:45:00,
2013-10-05 07:50:00,58.3,57.4,17.72,SSW,203,0.0,0.0,97,0.00,,,0.00,VWS V14.01,2013-10-05 11:50:00,
2013-10-05 07:55:00,58.3,57.7,17.72,SSW,203,0.0,0.0,98,0.00,,,0.00,VWS V14.01,2013-10-05 11:55:00,
2013-10-05 08:00:00,58.6,58.1,17.72,SSW,203,0.0,0.0,98,0.00,,,0.00,VWS V14.01,2013-10-05 12:00:00,
2013-10-05 08:05:00,58.8,58.3,17.72,SSW,203,0.0,0.0,98,0.00,,,0.00,VWS V14.01,2013-10-05 12:05:00,
2013-10-05 08:10:00,59.2,58.3,17.72,SSW,203,0.0,0.0,97,0.00,,,0.00,VWS V14.01,2013-10-05 12:10:00,
2013-10-05 08:15:00,59.4,58.5,17.72,SSW,203,0.0,0.0,97,0.00,,,0.00,VWS V14.01,2013-10-05 12:15:00,
2013-10-05 08:20:00,59.5,59.0,17.72,SSW,203,0.0,0.0,98,0.00,,,0.00,VWS V14.01,2013-10-05 12:20:00,
2013-10-05 08:25:00,59.5,59.0,17.72,SSW,203,0.0,0.0,98,0.00,,,0.00,VWS V14.01,2013-10-05 12:25:00,
2013-10-05 08:30:00,59.5,59.0,17.72,SSW,203,0.0,0.0,98,0.00,,,0.00,VWS V14.01,2013-10-05 12:30:00,
2013-10-05 08:35:00,60.3,59.7,17.72,SSW,203,0.0,0.0,98,0.00,,,0.00,VWS V14.01,2013-10-05 12:35:00,
2013-10-05 08:40:00,60.3,59.7,17.72,SSW,203,0.0,0.0,98,0.00,,,0.00,VWS V14.01,2013-10-05 12:40:00,
2013-10-05 08:45:00,60.4,59.9,17.72,SSW,203,0.0,0.0,98,0.00,,,0.00,VWS V14.01,2013-10-05 12:45:00,
2013-10-05 08:50:00,60.4,59.9,17.72,SSW,203,0.0,0.0,98,0.00,,,0.00,VWS V14.01,2013-10-05 12:50:00,
2013-10-05 08:55:00,60.6,60.1,17.72,SSW,203,0.0,0.0,98,0.00,,,0.00,VWS V14.01,2013-10-05 12:55:00,
2013-10-05 09:00:00,60.6,60.1,17.72,SSW,203,0.0,0.0,98,0.00,,,0.00,VWS V14.01,2013-10-05 13:00:00,
2013-10-05 09:05:00,60.6,60.1,17.72,SSW,203,0.0,0.0,98,0.00,,,0.00,VWS V14.01,2013-10-05 13:05:00,
2013-10-05 09:10:00,60.6,60.1,17.72,SSW,203,0.0,0.0,98,0.00,,,0.00,VWS V14.01,2013-10-05 13:10:00,
2013-10-05 09:15:00,60.8,60.0,17.72,SSW,203,0.0,0.0,97,0.00,,,0.00,VWS V14.01,2013-10-05 13:15:00,
2013-10-05 09:20:00,60.8,60.0,17.72,SSW,203,0.0,0.0,97,0.00,,,0.00,VWS V14.01,2013-10-05 13:20:00,
2013-10-05 09:25:00,60.8,60.0,17.72,SSW,203,0.0,0.0,97,0.00,,,0.00,VWS V14.01,2013-10-05 13:25:00,
2013-10-05 09:30:00,61.3,60.8,17.72,SSW,203,0.0,0.0,98,0.00,,,0.00,VWS V14.01,2013-10-05 13:30:00,
2013-10-05 09:35:00,61.3,60.8,17.72,SSW,203,0.0,0.0,98,0.00,,,0.00,VWS V14.01,2013-10-05 13:35:00,
2013-10-05 09:40:00,61.3,60.8,17.72,SSW,203,0.0,0.0,98,0.00,,,0.00,VWS V14.01,2013-10-05 13:40:00,
2013-10-05 09:45:00,61.3,60.8,17.72,SSW,203,0.0,0.0,98,0.00,,,0.00,VWS V14.01,2013-10-05 13:45:00,
2013-10-05 09:50:00,61.2,60.6,17.72,SSW,203,0.0,0.0,98,0.00,,,0.00,VWS V14.01,2013-10-05 13:50:00,
2013-10-05 09:55:00,61.2,60.6,17.72,SSW,203,0.0,0.0,98,0.00,,,0.00,VWS V14.01,2013-10-05 13:55:00,
2013-10-05 10:00:00,61.2,60.6,17.72,SSW,203,0.0,0.0,98,0.00,,,0.00,VWS V14.01,2013-10-05 14:00:00,
2013-10-05 10:05:00,61.3,60.8,17.72,SSW,203,0.0,0.0,98,0.00,,,0.00,VWS V14.01,2013-10-05 14:05:00,
2013-10-05 10:10:00,61.3,60.8,17.72,SSW,203,0.0,0.0,98,0.00,,,0.00,VWS V14.01,2013-10-05 14:10:00,
2013-10-05 10:15:00,61.3,60.8,17.72,SSW,203,0.0,0.0,98,0.00,,,0.00,VWS V14.01,2013-10-05 14:15:00,
2013-10-05 10:20:00,61.5,61.0,17.72,SSW,203,0.0,0.0,98,0.00,,,0.00,VWS V14.01,2013-10-05 14:20:00,
2013-10-05 10:25:00,61.7,61.1,17.72,SSW,203,0.0,0.0,98,0.00,,,0.00,VWS V14.01,2013-10-05 14:25:00,
2013-10-05 10:30:00,61.7,61.1,17.72,South,190,0.0,0.0,98,0.00,,,0.00,VWS V14.01,2013-10-05 14:30:00,
2013-10-05 10:35:00,61.7,61.1,17.72,South,190,0.0,0.0,98,0.00,,,0.00,VWS V14.01,2013-10-05 14:35:00,
2013-10-05 10:40:00,62.4,61.8,17.72,South,190,0.0,0.0,98,0.00,,,0.00,VWS V14.01,2013-10-05 14:40:00,
2013-10-05 10:45:00,63.7,63.1,17.72,South,172,0.0,0.0,98,0.00,,,0.00,VWS V14.01,2013-10-05 14:45:00,
2013-10-05 10:50:00,63.7,63.1,17.72,SW,223,0.0,0.0,98,0.00,,,0.00,VWS V14.01,2013-10-05 14:50:00,
2013-10-05 10:55:00,65.3,64.4,17.72,South,171,0.0,0.0,97,0.00,,,0.00,VWS V14.01,2013-10-05 14:55:00,
2013-10-05 11:00:00,64.6,63.4,17.72,South,171,0.0,0.0,96,0.00,,,0.00,VWS V14.01,2013-10-05 15:00:00,
2013-10-05 11:05:00,64.4,63.2,17.72,South,171,0.0,0.0,96,0.00,,,0.00,VWS V14.01,2013-10-05 15:05:00,
2013-10-05 11:10:00,64.4,63.2,17.72,South,191,0.0,0.0,96,0.00,,,0.00,VWS V14.01,2013-10-05 15:10:00,
2013-10-05 11:15:00,64.9,63.8,17.72,SSW,192,0.0,0.0,96,0.00,,,0.00,VWS V14.01,2013-10-05 15:15:00,
2013-10-05 11:20:00,65.5,64.3,17.72,SE,126,0.0,0.0,96,0.00,,,0.00,VWS V14.01,2013-10-05 15:20:00,
2013-10-05 11:25:00,65.7,64.5,17.72,SE,126,0.0,0.0,96,0.00,,,0.00,VWS V14.01,2013-10-05 15:25:00,
2013-10-05 11:30:00,65.7,64.2,17.72,SSE,156,0.0,0.0,95,0.00,,,0.00,VWS V14.01,2013-10-05 15:30:00,
2013-10-05 11:35:00,65.5,63.7,17.72,South,176,0.0,0.0,94,0.00,,,0.00,VWS V14.01,2013-10-05 15:35:00,
2013-10-05 11:40:00,65.5,63.7,17.72,South,176,0.0,0.0,94,0.00,,,0.00,VWS V14.01,2013-10-05 15:40:00,
2013-10-05 11:45:00,65.3,63.2,17.72,South,176,0.0,0.0,93,0.00,,,0.00,VWS V14.01,2013-10-05 15:45:00,
2013-10-05 11:50:00,65.3,62.9,17.72,SSW,199,0.0,0.0,92,0.00,,,0.00,VWS V14.01,2013-10-05 15:50:00,
2013-10-05 11:55:00,65.5,62.8,17.72,SSW,199,0.0,0.0,91,0.00,,,0.00,VWS V14.01,2013-10-05 15:55:00,
2013-10-05 12:00:00,65.5,62.5,17.72,South,189,0.0,0.0,90,0.00,,,0.00,VWS V14.01,2013-10-05 16:00:00,
2013-10-05 12:05:00,65.5,62.2,17.72,South,189,0.0,0.0,89,0.00,,,0.00,VWS V14.01,2013-10-05 16:05:00,
2013-10-05 12:10:00,66.2,62.2,17.72,SSW,201,0.0,0.0,87,0.00,,,0.00,VWS V14.01,2013-10-05 16:10:00,
2013-10-05 12:15:00,66.9,62.3,17.72,SSW,209,0.0,0.0,85,0.00,,,0.00,VWS V14.01,2013-10-05 16:15:00,
2013-10-05 12:20:00,67.3,62.3,17.72,SW,227,3.1,3.1,84,0.00,,,0.00,VWS V14.01,2013-10-05 16:20:00,
2013-10-05 12:25:00,67.8,61.8,17.72,WSW,250,3.1,3.1,81,0.00,,,0.00,VWS V14.01,2013-10-05 16:25:00,
2013-10-05 12:30:00,68.4,61.2,17.72,WSW,246,0.0,0.0,78,0.00,,,0.00,VWS V14.01,2013-10-05 16:30:00,
2013-10-05 12:35:00,68.9,61.0,17.72,WSW,246,0.0,0.0,76,0.00,,,0.00,VWS V14.01,2013-10-05 16:35:00,
2013-10-05 12:40:00,69.3,60.6,17.72,SW,229,0.0,0.0,74,0.00,,,0.00,VWS V14.01,2013-10-05 16:40:00,
2013-10-05 12:45:00,69.6,60.2,17.72,SW,228,0.0,0.0,72,0.00,,,0.00,VWS V14.01,2013-10-05 16:45:00,
2013-10-05 12:50:00,70.2,59.9,17.72,WSW,237,0.0,0.0,70,0.00,,,0.00,VWS V14.01,2013-10-05 16:50:00,
2013-10-05 12:55:00,70.2,57.4,17.72,South,177,2.7,2.7,64,0.00,,,0.00,VWS V14.01,2013-10-05 16:55:00,
2013-10-05 13:00:00,69.4,56.3,17.72,South,177,0.0,0.0,63,0.00,,,0.00,VWS V14.01,2013-10-05 17:00:00,
2013-10-05 13:05:00,69.1,56.4,17.72,South,177,0.0,0.0,64,0.00,,,0.00,VWS V14.01,2013-10-05 17:05:00,
2013-10-05 13:10:00,69.1,56.4,17.72,SSE,167,0.0,0.0,64,0.00,,,0.00,VWS V14.01,2013-10-05 17:10:00,
2013-10-05 13:15:00,69.1,56.4,17.72,South,177,0.0,0.0,64,0.00,,,0.00,VWS V14.01,2013-10-05 17:15:00,
2013-10-05 13:20:00,67.8,55.6,17.72,South,177,0.0,0.0,65,0.00,,,0.00,VWS V14.01,2013-10-05 17:20:00,
2013-10-05 13:25:00,67.8,55.6,17.72,South,181,0.0,0.0,65,0.00,,,0.00,VWS V14.01,2013-10-05 17:25:00,
2013-10-05 13:30:00,67.8,56.1,17.72,South,181,0.0,0.0,66,0.00,,,0.00,VWS V14.01,2013-10-05 17:30:00,
2013-10-05 13:35:00,68.2,56.4,17.72,South,181,0.0,0.0,66,0.00,,,0.00,VWS V14.01,2013-10-05 17:35:00,
2013-10-05 13:40:00,68.2,56.4,17.72,South,181,0.0,0.0,66,0.00,,,0.00,VWS V14.01,2013-10-05 17:40:00,
2013-10-05 13:45:00,68.4,56.6,17.72,South,181,0.0,0.0,66,0.00,,,0.00,VWS V14.01,2013-10-05 17:45:00,
2013-10-05 13:50:00,68.4,56.2,17.72,South,177,0.0,0.0,65,0.00,,,0.00,VWS V14.01,2013-10-05 17:50:00,
2013-10-05 13:55:00,68.2,55.1,17.72,South,181,0.0,0.0,63,0.00,,,0.00,VWS V14.01,2013-10-05 17:55:00,
2013-10-05 14:00:00,68.0,55.0,17.72,South,181,0.0,0.0,63,0.00,,,0.00,VWS V14.01,2013-10-05 18:00:00,
2013-10-05 14:05:00,68.0,55.4,17.72,South,181,0.0,0.0,64,0.00,,,0.00,VWS V14.01,2013-10-05 18:05:00,
2013-10-05 14:10:00,68.2,56.0,17.72,South,181,0.0,0.0,65,0.00,,,0.00,VWS V14.01,2013-10-05 18:10:00,
2013-10-05 14:15:00,68.0,55.4,17.72,South,181,0.0,0.0,64,0.00,,,0.00,VWS V14.01,2013-10-05 18:15:00,
2013-10-05 14:20:00,67.8,55.6,17.72,South,181,0.0,0.0,65,0.00,,,0.00,VWS V14.01,2013-10-05 18:20:00,
2013-10-05 14:25:00,67.8,55.6,17.72,South,181,0.0,0.0,65,0.00,,,0.00,VWS V14.01,2013-10-05 18:25:00,
2013-10-05 14:30:00,67.8,55.6,17.72,South,181,0.0,0.0,65,0.00,,,0.00,VWS V14.01,2013-10-05 18:30:00,
2013-10-05 14:35:00,67.8,56.1,17.72,South,182,0.0,0.0,66,0.00,,,0.00,VWS V14.01,2013-10-05 18:35:00,
2013-10-05 14:40:00,67.8,56.1,17.72,South,182,0.0,0.0,66,0.00,,,0.00,VWS V14.01,2013-10-05 18:40:00,
2013-10-05 14:45:00,67.8,55.6,17.72,South,182,0.0,0.0,65,0.00,,,0.00,VWS V14.01,2013-10-05 18:45:00,
2013-10-05 14:50:00,67.8,55.6,17.72,South,183,0.0,0.0,65,0.00,,,0.00,VWS V14.01,2013-10-05 18:50:00,
2013-10-05 14:55:00,67.8,55.6,17.72,South,183,0.0,0.0,65,0.00,,,0.00,VWS V14.01,2013-10-05 18:55:00,
2013-10-05 15:00:00,67.8,55.6,17.72,South,183,0.0,0.0,65,0.00,,,0.00,VWS V14.01,2013-10-05 19:00:00,
2013-10-05 15:05:00,68.0,55.8,17.72,SSE,150,0.0,0.0,65,0.00,,,0.00,VWS V14.01,2013-10-05 19:05:00,
2013-10-05 15:10:00,68.0,55.8,17.72,SSE,152,0.0,0.0,65,0.00,,,0.00,VWS V14.01,2013-10-05 19:10:00,
2013-10-05 15:15:00,68.2,55.5,17.72,SSE,168,0.0,0.0,64,0.00,,,0.00,VWS V14.01,2013-10-05 19:15:00,
2013-10-05 15:20:00,68.2,55.5,17.72,South,180,0.0,0.0,64,0.00,,,0.00,VWS V14.01,2013-10-05 19:20:00,
2013-10-05 15:25:00,68.4,55.7,17.72,South,180,0.0,0.0,64,0.00,,,0.00,VWS V14.01,2013-10-05 19:25:00,
2013-10-05 15:30:00,68.4,55.7,17.72,South,180,0.0,0.0,64,0.00,,,0.00,VWS V14.01,2013-10-05 19:30:00,
2013-10-05 15:35:00,68.4,55.7,17.72,South,172,0.0,0.0,64,0.00,,,0.00,VWS V14.01,2013-10-05 19:35:00,
2013-10-05 15:40:00,68.4,55.7,17.72,South,172,0.0,0.0,64,0.00,,,0.00,VWS V14.01,2013-10-05 19:40:00,
2013-10-05 15:45:00,68.2,55.5,17.72,South,172,0.0,0.0,64,0.00,,,0.00,VWS V14.01,2013-10-05 19:45:00,
2013-10-05 15:50:00,68.2,56.0,17.72,South,172,0.0,0.0,65,0.00,,,0.00,VWS V14.01,2013-10-05 19:50:00,
2013-10-05 15:55:00,68.2,56.0,17.72,South,172,0.0,0.0,65,0.00,,,0.00,VWS V14.01,2013-10-05 19:55:00,
2013-10-05 16:00:00,68.2,55.5,17.72,SSW,198,0.0,0.0,64,0.00,,,0.00,VWS V14.01,2013-10-05 20:00:00,
2013-10-05 16:05:00,68.4,55.7,17.72,South,171,0.0,0.0,64,0.00,,,0.00,VWS V14.01,2013-10-05 20:05:00,
2013-10-05 16:10:00,68.4,55.7,17.72,South,171,0.0,0.0,64,0.00,,,0.00,VWS V14.01,2013-10-05 20:10:00,
2013-10-05 16:15:00,68.2,56.0,17.72,South,171,0.0,0.0,65,0.00,,,0.00,VWS V14.01,2013-10-05 20:15:00,
2013-10-05 16:20:00,68.0,55.8,17.72,South,171,0.0,0.0,65,0.00,,,0.00,VWS V14.01,2013-10-05 20:20:00,
2013-10-05 16:25:00,68.0,55.8,17.72,South,171,0.0,0.0,65,0.00,,,0.00,VWS V14.01,2013-10-05 20:25:00,
2013-10-05 16:30:00,67.8,56.1,17.72,South,171,0.0,0.0,66,0.00,,,0.00,VWS V14.01,2013-10-05 20:30:00,
2013-10-05 16:35:00,67.6,55.9,17.72,South,171,0.0,0.0,66,0.04,,,0.04,VWS V14.01,2013-10-05 20:35:00,
2013-10-05 16:40:00,67.6,55.9,17.72,South,171,0.0,0.0,66,0.04,,,0.04,VWS V14.01,2013-10-05 20:40:00,
2013-10-05 16:45:00,67.5,56.1,17.72,South,171,0.0,0.0,67,0.04,,,0.04,VWS V14.01,2013-10-05 20:45:00,
2013-10-05 16:50:00,67.5,56.1,17.72,South,171,0.0,0.0,67,0.04,,,0.04,VWS V14.01,2013-10-05 20:50:00,
2013-10-05 16:55:00,67.3,56.0,17.72,South,171,0.0,0.0,67,0.04,,,0.04,VWS V14.01,2013-10-05 20:55:00,
2013-10-05 17:00:00,67.1,56.2,17.72,South,171,0.0,0.0,68,0.04,,,0.04,VWS V14.01,2013-10-05 21:00:00,
2013-10-05 17:05:00,66.9,56.4,17.72,South,171,4.0,4.0,69,0.04,,,0.04,VWS V14.01,2013-10-05 21:05:00,
2013-10-05 17:10:00,66.9,56.4,17.72,South,170,0.0,0.0,69,0.04,,,0.04,VWS V14.01,2013-10-05 21:10:00,
2013-10-05 17:15:00,66.9,56.4,17.72,South,173,0.0,0.0,69,0.04,,,0.04,VWS V14.01,2013-10-05 21:15:00,
2013-10-05 17:20:00,66.7,56.3,17.72,South,173,0.0,0.0,69,0.04,,,0.04,VWS V14.01,2013-10-05 21:20:00,
2013-10-05 17:25:00,66.7,56.3,17.72,South,173,0.0,0.0,69,0.04,,,0.04,VWS V14.01,2013-10-05 21:25:00,
2013-10-05 17:30:00,66.7,56.3,17.72,South,173,0.0,0.0,69,0.04,,,0.04,VWS V14.01,2013-10-05 21:30:00,
2013-10-05 17:34:00,66.7,56.3,17.72,South,173,0.0,0.0,69,0.00,,,0.04,VWS V14.01,2013-10-05 21:34:00,
2013-10-05 17:39:00,66.2,55.7,17.72,South,174,0.0,0.0,69,0.00,,,0.04,VWS V14.01,2013-10-05 21:39:00,
2013-10-05 17:45:00,66.0,56.0,17.72,South,174,0.0,0.0,70,0.00,,,0.04,VWS V14.01,2013-10-05 21:45:00,
2013-10-05 17:50:00,65.8,55.8,17.72,South,174,0.0,0.0,70,0.00,,,0.04,VWS V14.01,2013-10-05 21:50:00,
2013-10-05 17:55:00,65.7,56.0,17.72,South,174,0.0,0.0,71,0.00,,,0.04,VWS V14.01,2013-10-05 21:55:00,
2013-10-05 18:00:00,65.7,56.0,17.72,South,174,0.0,0.0,71,0.00,,,0.04,VWS V14.01,2013-10-05 22:00:00,
2013-10-05 18:05:00,65.3,55.7,17.72,South,174,0.0,0.0,71,0.00,,,0.04,VWS V14.01,2013-10-05 22:05:00,
2013-10-05 18:09:00,65.1,55.5,17.72,South,174,0.0,0.0,71,0.00,,,0.04,VWS V14.01,2013-10-05 22:09:00,
2013-10-05 18:14:00,64.9,55.3,17.72,South,174,0.0,0.0,71,0.00,,,0.04,VWS V14.01,2013-10-05 22:14:00,
2013-10-05 18:19:00,64.9,55.3,17.72,South,174,0.0,0.0,71,0.00,,,0.04,VWS V14.01,2013-10-05 22:19:00,
2013-10-05 18:25:00,64.8,55.5,17.72,South,174,0.0,0.0,72,0.00,,,0.04,VWS V14.01,2013-10-05 22:25:00,
2013-10-05 18:30:00,64.6,55.4,17.72,South,174,0.0,0.0,72,0.00,,,0.04,VWS V14.01,2013-10-05 22:30:00,
2013-10-05 18:35:00,64.2,55.4,17.72,South,174,0.0,0.0,73,0.00,,,0.04,VWS V14.01,2013-10-05 22:35:00,
2013-10-05 18:40:00,64.2,55.4,17.72,South,174,0.0,0.0,73,0.00,,,0.04,VWS V14.01,2013-10-05 22:40:00,
2013-10-05 18:44:00,64.0,55.2,17.72,South,174,0.0,0.0,73,0.00,,,0.04,VWS V14.01,2013-10-05 22:44:00,
2013-10-05 18:49:00,63.9,55.0,17.72,South,174,0.0,0.0,73,0.00,,,0.04,VWS V14.01,2013-10-05 22:49:00,
2013-10-05 18:55:00,63.9,55.0,17.72,South,187,0.0,0.0,73,0.00,,,0.04,VWS V14.01,2013-10-05 22:55:00,
2013-10-05 18:59:00,63.7,54.9,17.72,South,183,0.0,0.0,73,0.00,,,0.04,VWS V14.01,2013-10-05 22:59:00,
2013-10-05 19:04:00,63.7,54.9,17.72,South,183,0.0,0.0,73,0.00,,,0.04,VWS V14.01,2013-10-05 23:04:00,
2013-10-05 19:10:00,63.5,54.7,17.72,South,183,0.0,0.0,73,0.00,,,0.04,VWS V14.01,2013-10-05 23:10:00,
2013-10-05 19:15:00,63.5,54.7,17.72,South,184,0.0,0.0,73,0.00,,,0.04,VWS V14.01,2013-10-05 23:15:00,
2013-10-05 19:19:00,63.3,54.5,17.72,South,184,0.0,0.0,73,0.00,,,0.04,VWS V14.01,2013-10-05 23:19:00,
2013-10-05 19:24:00,63.3,54.5,17.72,South,183,0.0,0.0,73,0.00,,,0.04,VWS V14.01,2013-10-05 23:24:00,
2013-10-05 19:29:00,63.3,54.5,17.72,South,183,0.0,0.0,73,0.00,,,0.04,VWS V14.01,2013-10-05 23:29:00,
2013-10-05 19:34:00,63.3,54.5,17.72,SSE,166,0.0,0.0,73,0.00,,,0.04,VWS V14.01,2013-10-05 23:34:00,
2013-10-05 19:39:00,63.0,54.2,17.72,SSE,160,0.0,0.0,73,0.00,,,0.04,VWS V14.01,2013-10-05 23:39:00,
2013-10-05 19:44:00,62.8,54.0,17.72,SSE,160,0.0,0.0,73,0.00,,,0.04,VWS V14.01,2013-10-05 23:44:00,
2013-10-05 19:49:00,62.8,54.0,17.72,South,171,2.7,2.7,73,0.00,,,0.04,VWS V14.01,2013-10-05 23:49:00,
2013-10-05 19:54:00,62.8,54.0,17.72,SSW,198,0.0,0.0,73,0.00,,,0.04,VWS V14.01,2013-10-05 23:54:00,
2013-10-05 19:59:00,62.6,53.8,17.72,SSE,163,0.0,0.0,73,0.00,,,0.04,VWS V14.01,2013-10-05 23:59:00,
2013-10-05 20:04:00,62.6,53.8,17.72,SSE,163,0.0,0.0,73,0.00,,,0.04,VWS V14.01,2013-10-06 00:04:00,
2013-10-05 20:09:00,62.6,53.8,17.72,SSE,163,0.0,0.0,73,0.00,,,0.04,VWS V14.01,2013-10-06 00:09:00,
2013-10-05 20:14:00,62.4,53.7,17.72,SSE,163,0.0,0.0,73,0.00,,,0.04,VWS V14.01,2013-10-06 00:14:00,
2013-10-05 20:19:00,62.2,53.5,17.72,SSE,163,0.0,0.0,73,0.00,,,0.04,VWS V14.01,2013-10-06 00:19:00,
2013-10-05 20:24:00,62.2,53.9,17.72,SSE,163,0.0,0.0,74,0.00,,,0.04,VWS V14.01,2013-10-06 00:24:00,
2013-10-05 20:29:00,62.1,53.7,17.72,SSE,163,0.0,0.0,74,0.00,,,0.04,VWS V14.01,2013-10-06 00:29:00,
2013-10-05 20:34:00,62.1,54.0,17.72,SSE,163,0.0,0.0,75,0.00,,,0.04,VWS V14.01,2013-10-06 00:34:00,
2013-10-05 20:39:00,61.9,53.9,17.72,SSE,163,0.0,0.0,75,0.00,,,0.04,VWS V14.01,2013-10-06 00:39:00,
2013-10-05 20:44:00,61.9,53.9,17.72,SSE,163,0.0,0.0,75,0.00,,,0.04,VWS V14.01,2013-10-06 00:44:00,
2013-10-05 20:49:00,61.9,54.2,17.72,SSE,163,0.0,0.0,76,0.00,,,0.04,VWS V14.01,2013-10-06 00:49:00,
2013-10-05 20:54:00,61.9,54.2,17.72,SSE,163,0.0,0.0,76,0.00,,,0.04,VWS V14.01,2013-10-06 00:54:00,
2013-10-05 20:59:00,61.9,54.2,17.72,SSE,163,0.0,0.0,76,0.00,,,0.04,VWS V14.01,2013-10-06 00:59:00,
2013-10-05 21:04:00,61.7,54.4,17.72,SSE,165,0.0,0.0,77,0.00,,,0.04,VWS V14.01,2013-10-06 01:04:00,
2013-10-05 21:09:00,61.7,54.4,17.72,SSE,165,0.0,0.0,77,0.00,,,0.04,VWS V14.01,2013-10-06 01:09:00,
2013-10-05 21:14:00,61.7,54.8,17.72,SSE,165,0.0,0.0,78,0.00,,,0.04,VWS V14.01,2013-10-06 01:14:00,
2013-10-05 21:19:00,61.7,54.8,17.72,SSE,165,0.0,0.0,78,0.00,,,0.04,VWS V14.01,2013-10-06 01:19:00,
2013-10-05 21:24:00,61.5,54.6,17.72,SSE,165,0.0,0.0,78,0.00,,,0.04,VWS V14.01,2013-10-06 01:24:00,
2013-10-05 21:29:00,61.3,54.8,17.72,SSE,165,0.0,0.0,79,0.00,,,0.04,VWS V14.01,2013-10-06 01:29:00,
2013-10-05 21:34:00,61.3,54.8,17.72,SSE,165,0.0,0.0,79,0.00,,,0.04,VWS V14.01,2013-10-06 01:34:00,
2013-10-05 21:39:00,61.3,54.8,17.72,SSE,165,0.0,0.0,79,0.00,,,0.04,VWS V14.01,2013-10-06 01:39:00,
2013-10-05 21:44:00,61.2,55.0,17.72,SSE,165,0.0,0.0,80,0.00,,,0.04,VWS V14.01,2013-10-06 01:44:00,
2013-10-05 21:49:00,61.2,55.0,17.72,SSE,165,0.0,0.0,80,0.00,,,0.04,VWS V14.01,2013-10-06 01:49:00,
2013-10-05 21:54:00,61.2,55.0,17.72,SSE,165,0.0,0.0,80,0.00,,,0.04,VWS V14.01,2013-10-06 01:54:00,
2013-10-05 21:59:00,61.2,55.3,17.72,SSE,165,0.0,0.0,81,0.00,,,0.04,VWS V14.01,2013-10-06 01:59:00,
2013-10-05 22:04:00,61.2,55.3,17.72,SSE,165,0.0,0.0,81,0.00,,,0.04,VWS V14.01,2013-10-06 02:04:00,
2013-10-05 22:09:00,61.2,55.3,17.72,SSE,165,0.0,0.0,81,0.00,,,0.04,VWS V14.01,2013-10-06 02:09:00,
2013-10-05 22:14:00,61.2,55.3,17.72,SSE,165,0.0,0.0,81,0.00,,,0.04,VWS V14.01,2013-10-06 02:14:00,
2013-10-05 22:19:00,61.2,55.6,17.72,SSE,165,0.0,0.0,82,0.00,,,0.04,VWS V14.01,2013-10-06 02:19:00,
2013-10-05 22:24:00,61.2,55.6,17.72,SSE,165,0.0,0.0,82,0.00,,,0.04,VWS V14.01,2013-10-06 02:24:00,
2013-10-05 22:29:00,61.2,55.6,17.72,SSE,165,0.0,0.0,82,0.00,,,0.04,VWS V14.01,2013-10-06 02:29:00,
2013-10-05 22:34:00,61.2,55.6,17.72,SSE,165,0.0,0.0,82,0.00,,,0.04,VWS V14.01,2013-10-06 02:34:00,
2013-10-05 22:39:00,61.0,55.5,17.72,SSE,165,0.0,0.0,82,0.00,,,0.04,VWS V14.01,2013-10-06 02:39:00,
2013-10-05 22:44:00,61.0,55.8,17.72,SSE,165,0.0,0.0,83,0.00,,,0.04,VWS V14.01,2013-10-06 02:44:00,
2013-10-05 22:49:00,61.0,55.8,17.72,SSE,165,0.0,0.0,83,0.00,,,0.04,VWS V14.01,2013-10-06 02:49:00,
2013-10-05 22:54:00,61.0,55.8,17.72,SSE,165,0.0,0.0,83,0.00,,,0.04,VWS V14.01,2013-10-06 02:54:00,
2013-10-05 22:59:00,61.0,55.8,17.72,SSE,165,0.0,0.0,83,0.00,,,0.04,VWS V14.01,2013-10-06 02:59:00,
2013-10-05 23:04:00,61.0,55.8,17.72,SSE,165,0.0,0.0,83,0.00,,,0.04,VWS V14.01,2013-10-06 03:04:00,
2013-10-05 23:09:00,61.0,55.8,17.72,SSE,165,0.0,0.0,83,0.00,,,0.04,VWS V14.01,2013-10-06 03:09:00,
2013-10-05 23:14:00,60.8,55.9,17.72,SSE,165,0.0,0.0,84,0.00,,,0.04,VWS V14.01,2013-10-06 03:14:00,
2013-10-05 23:19:00,60.8,55.9,17.72,SSE,165,0.0,0.0,84,0.00,,,0.04,VWS V14.01,2013-10-06 03:19:00,
2013-10-05 23:24:00,60.8,55.9,17.72,SSE,165,0.0,0.0,84,0.00,,,0.04,VWS V14.01,2013-10-06 03:24:00,
2013-10-05 23:29:00,60.8,55.9,17.72,SSE,165,0.0,0.0,84,0.00,,,0.04,VWS V14.01,2013-10-06 03:29:00,
2013-10-05 23:34:00,60.8,55.9,17.72,SSE,165,0.0,0.0,84,0.00,,,0.04,VWS V14.01,2013-10-06 03:34:00,
2013-10-05 23:39:00,60.8,56.3,17.72,SSE,165,0.0,0.0,85,0.00,,,0.04,VWS V14.01,2013-10-06 03:39:00,
2013-10-05 23:44:00,60.8,56.3,17.72,SSE,165,0.0,0.0,85,0.00,,,0.04,VWS V14.01,2013-10-06 03:44:00,
2013-10-05 23:49:00,60.8,56.3,17.72,SSE,165,0.0,0.0,85,0.00,,,0.04,VWS V14.01,2013-10-06 03:49:00,
2013-10-05 23:54:00,60.8,56.3,17.72,SSE,165,0.0,0.0,85,0.00,,,0.04,VWS V14.01,2013-10-06 03:54:00,
2013-10-05 23:59:00,60.8,56.3,17.72,SSE,165,0.0,0.0,85,0.00,,,0.04,VWS V14.01,2013-10-06 03:59:00,